Date String (YYYY-MM-DD hh:mm:ss) UTC,Instrument flags,absolute air pressure of the measurement (hPa),sample flow rate (lpm),inlet stack bypass flow (lpm),air temperature of the measurement (°C),ambient temperature measured by the external sensor (°C),aerosol sample conditioner tube jacket temperature (°C),OPC LED temperature (°C),internal box temperature (°C),relative humidity of the measurement (%),span deviation,mass concentration of particles derived from Lorenz-Mie calculation of OPC scattering (μg/m³),mass concentration of particles derived from Lorenz-Mie calculation of OPC scattering (μg/m³),mass concentration of particles derived from Lorenz-Mie calculation of OPC scattering (μg/m³)
DateTimeUTC,F1_M11,P_M11,Q1_M11,Q2_M11,T1_M11,T2_M11,T3_M11,T4_M11,T5_M11,U1_M11,ZSPAN_M11,X2_M11,X0_M11,X1_M11
2024-04-22 02:00:00,SystemResetWarning,0828.7,5.00,000.00,025.4,024.6,000.0,033.8,027.2,021.2,0003.7,0007.63,0013.83,0007.00
2024-04-22 02:01:00,SystemResetWarning,0828.7,5.00,000.00,025.4,024.6,000.0,033.8,027.2,021.3,0003.8,0007.67,0014.52,0007.02
2024-04-22 02:02:00,SystemResetWarning,0828.7,5.00,000.00,025.4,024.6,000.0,033.8,027.2,021.4,0003.8,0007.68,0014.94,0007.03
2024-04-22 02:03:00,SystemResetWarning,0828.7,5.00,000.00,025.4,024.6,000.0,033.8,027.2,021.4,0003.8,0007.66,0014.26,0007.02
2024-04-22 02:04:00,SystemResetWarning,0828.7,5.00,000.00,025.4,024.6,000.0,033.9,027.2,021.4,0003.6,0007.56,0013.49,0006.97
2024-04-22 02:05:00,SystemResetWarning,0828.7,5.00,000.00,025.4,024.6,000.0,033.9,027.2,021.6,0003.5,0007.50,0013.36,0006.91
2024-04-22 02:06:00,SystemResetWarning,0828.7,5.00,000.00,025.4,024.6,000.0,033.9,027.2,021.6,0003.5,0007.41,0013.72,0006.85
2024-04-22 02:07:00,SystemResetWarning,0828.7,5.00,000.00,025.4,024.6,000.0,033.9,027.2,021.7,0003.6,0007.34,0013.75,0006.79
2024-04-22 02:08:00,SystemResetWarning,0828.7,4.99,000.00,025.4,024.6,000.0,033.9,027.2,021.6,0003.5,0007.31,0014.23,0006.74
2024-04-22 02:09:00,SystemResetWarning,0828.7,4.99,000.00,025.4,024.6,000.0,033.9,027.2,021.6,0003.4,0007.27,0014.41,0006.70
2024-04-22 02:10:00,SystemResetWarning,0828.6,5.00,000.00,025.4,024.6,000.0,033.9,027.2,021.6,0003.1,0007.23,0014.37,0006.65
2024-04-22 02:11:00,SystemResetWarning,0828.7,5.00,000.00,025.4,024.6,000.0,033.9,027.2,021.6,0003.2,0007.16,0014.29,0006.60
2024-04-22 02:12:00,SystemResetWarning,0828.7,5.00,000.00,025.4,024.6,000.0,033.9,027.2,021.5,0003.0,0007.11,0013.73,0006.56
2024-04-22 02:13:00,SystemResetWarning,0828.7,5.01,000.00,025.4,024.6,000.0,033.9,027.2,021.4,0003.3,0007.09,0013.32,0006.53
2024-04-22 02:14:00,SystemResetWarning,0828.6,5.00,000.00,025.4,024.6,000.0,033.9,027.2,020.8,0003.3,0007.07,0013.27,0006.50
2024-04-22 02:15:00,SystemResetWarning,0828.7,5.01,000.00,025.4,024.6,000.0,033.9,027.2,020.4,0003.9,0007.14,0013.51,0006.49
2024-04-22 02:16:00,SystemResetWarning,0828.7,5.00,000.00,025.4,024.6,000.0,033.9,027.2,020.1,0003.8,0007.15,0013.23,0006.51
2024-04-22 02:17:00,SystemResetWarning,0828.7,5.00,000.00,025.4,024.6,000.0,033.9,027.2,020.0,0003.5,0007.18,0012.32,0006.54
2024-04-22 02:18:00,SystemResetWarning,0828.7,5.00,000.00,025.4,024.6,000.0,033.9,027.2,020.4,0003.6,0007.24,0012.15,0006.60
2024-04-22 02:19:00,SystemResetWarning,0828.7,5.00,000.00,025.4,024.6,000.0,033.9,027.2,021.3,0003.6,0007.27,0011.92,0006.64
2024-04-22 02:20:00,SystemResetWarning,0828.7,5.00,000.00,025.4,024.6,000.0,033.9,027.2,021.6,0003.9,0007.27,0011.58,0006.63
2024-04-22 02:21:00,SystemResetWarning,0828.7,5.00,000.00,025.4,024.6,000.0,033.9,027.2,021.4,0004.3,0007.24,0011.53,0006.60
2024-04-22 02:22:00,SystemResetWarning,0828.7,5.00,000.00,025.4,024.6,000.0,033.9,027.2,021.4,0004.8,0007.23,0011.21,0006.58
2024-04-22 02:23:00,SystemResetWarning,0828.7,5.00,000.00,025.4,024.6,000.0,033.9,027.2,021.3,0004.7,0007.18,0010.90,0006.54
2024-04-22 02:24:00,SystemResetWarning,0828.7,5.00,000.00,025.4,024.6,000.0,033.9,027.2,021.4,0004.6,0007.15,0011.00,0006.50
2024-04-22 02:25:00,SystemResetWarning,0828.7,5.00,000.00,025.4,024.6,000.0,033.9,027.2,020.7,0004.5,0007.14,0011.06,0006.49
2024-04-22 02:26:00,SystemResetWarning,0828.8,5.00,000.00,025.4,024.6,000.0,033.9,027.2,020.3,0004.3,0007.11,0011.75,0006.48
2024-04-22 02:27:00,SystemResetWarning,0828.8,5.00,000.00,025.4,024.6,000.0,033.9,027.2,020.4,0004.6,0007.12,0011.71,0006.48
2024-04-22 02:28:00,SystemResetWarning,0828.8,4.99,000.00,025.4,024.6,000.0,033.9,027.2,020.4,0004.7,0007.08,0011.66,0006.45
2024-04-22 02:29:00,SystemResetWarning,0828.8,4.99,000.00,025.4,024.6,000.0,033.9,027.2,020.7,0004.4,0007.07,0011.97,0006.43
2024-04-22 02:30:00,SystemResetWarning,0828.8,5.00,000.00,025.4,024.6,000.0,033.9,027.2,021.2,0004.3,0007.01,0012.46,0006.37
2024-04-22 02:31:00,SystemResetWarning,0828.7,5.01,000.00,025.4,024.6,000.0,033.9,027.2,021.4,0004.3,0006.97,0012.38,0006.34
2024-04-22 02:32:00,SystemResetWarning,0828.8,5.00,000.00,025.4,024.6,000.0,033.9,027.2,021.4,0004.1,0006.90,0012.23,0006.31
2024-04-22 02:33:00,SystemResetWarning,0828.8,4.99,000.00,025.4,024.6,000.0,033.9,027.2,021.3,0003.2,0006.89,0012.60,0006.29
2024-04-22 02:34:00,SystemResetWarning,0828.9,4.99,000.00,025.4,024.6,000.0,033.9,027.2,021.1,0003.0,0006.84,0013.02,0006.26
2024-04-22 02:35:00,SystemResetWarning,0828.9,5.00,000.00,025.4,024.6,000.0,033.9,027.2,021.1,0003.2,0006.84,0013.15,0006.25
2024-04-22 02:36:00,SystemResetWarning,0829.0,5.00,000.00,025.4,024.6,000.0,033.9,027.2,020.9,0002.9,0006.79,0013.02,0006.22
2024-04-22 02:37:00,SystemResetWarning,0828.9,5.02,000.00,025.4,024.6,000.0,033.9,027.2,020.8,0003.1,0006.73,0012.17,0006.16
2024-04-22 02:38:00,SystemResetWarning,0828.9,5.00,000.00,025.4,024.6,000.0,033.9,027.2,020.7,0003.3,0006.65,0012.31,0006.09
2024-04-22 02:39:00,SystemResetWarning,0828.9,4.99,000.00,025.4,024.6,000.0,033.9,027.2,020.7,0003.3,0006.62,0012.73,0006.05
2024-04-22 02:40:00,SystemResetWarning,0828.9,4.99,000.00,025.4,024.6,000.0,033.9,027.2,020.9,0003.7,0006.52,0012.29,0005.97
2024-04-22 02:41:00,SystemResetWarning,0828.9,4.99,000.00,025.4,024.6,000.0,033.9,027.2,021.0,0004.3,0006.43,0011.55,0005.91
2024-04-22 02:42:00,SystemResetWarning,0829.0,5.01,000.00,025.4,024.6,000.0,033.9,027.2,021.6,0004.3,0006.38,0011.45,0005.88
2024-04-22 02:43:00,SystemResetWarning,0829.0,5.01,000.00,025.4,024.6,000.0,033.9,027.2,021.1,0004.2,0006.42,0011.56,0005.89
2024-04-22 02:44:00,SystemResetWarning,0829.0,5.00,000.00,025.4,024.6,000.0,033.9,027.2,020.8,0004.5,0006.42,0011.21,0005.91
2024-04-22 02:45:00,SystemResetWarning,0828.9,4.99,000.00,025.4,024.6,000.0,033.9,027.2,020.8,0004.8,0006.45,0010.76,0005.93
2024-04-22 02:46:00,SystemResetWarning,0829.0,4.99,000.00,025.4,024.6,000.0,033.9,027.2,020.9,0004.8,0006.45,0010.51,0005.94
2024-04-22 02:47:00,SystemResetWarning,0829.0,5.00,000.00,025.4,024.5,000.0,033.9,027.2,020.8,0004.8,0006.45,0010.49,0005.94
2024-04-22 02:48:00,SystemResetWarning,0828.9,5.00,000.00,025.3,024.5,000.0,033.9,027.2,021.1,0005.0,0006.44,0010.43,0005.96
2024-04-22 02:49:00,SystemResetWarning,0829.0,5.00,000.00,025.3,024.5,000.0,033.9,027.1,021.6,0004.8,0006.39,0010.08,0005.95
2024-04-22 02:50:00,SystemResetWarning,0828.9,5.01,000.00,025.3,024.5,000.0,033.9,027.1,021.1,0004.8,0006.39,0009.48,0005.96
2024-04-22 02:51:00,SystemResetWarning,0829.0,5.00,000.00,025.3,024.5,000.0,033.9,027.1,020.9,0004.9,0006.43,0009.59,0005.96
2024-04-22 02:52:00,SystemResetWarning,0828.9,5.00,000.00,025.3,024.5,000.0,033.9,027.2,020.9,0004.5,0006.46,0009.61,0005.96
2024-04-22 02:53:00,SystemResetWarning,0829.0,5.00,000.00,025.3,024.5,000.0,033.9,027.2,020.8,0004.5,0006.49,0009.93,0005.94
2024-04-22 02:54:00,SystemResetWarning,0828.9,5.01,000.00,025.3,024.5,000.0,033.9,027.1,020.7,0004.4,0006.49,0010.00,0005.94
2024-04-22 02:55:00,SystemResetWarning,0829.0,5.00,000.00,025.3,024.5,000.0,033.9,027.1,020.7,0004.1,0006.52,0010.07,0005.93
2024-04-22 02:56:00,SystemResetWarning,0828.9,5.00,000.00,025.3,024.5,000.0,033.9,027.1,020.7,0003.5,0006.53,0010.21,0005.91
2024-04-22 02:57:00,SystemResetWarning,0828.9,5.00,000.00,025.3,024.5,000.0,033.9,027.1,020.7,0003.3,0006.54,0010.39,0005.88
2024-04-22 02:58:00,SystemResetWarning,0828.9,5.00,000.00,025.3,024.5,000.0,033.9,027.1,020.8,0003.3,0006.55,0010.46,0005.87
2024-04-22 02:59:00,SystemResetWarning,0828.9,5.00,000.00,025.3,024.5,000.0,033.9,027.1,020.8,0003.1,0006.56,0010.48,0005.84
